H1 CPF 2 NER 2021 7 3 9 184 01 glonass134 H2 1407501 9134 40315 2021 7 3 0 0 0 2021 7 6 23 45 0 900 1 1 0 0 0 1 H9 10 0 59398 0.00000 0 9881870.389 7259524.992 22396753.697 10 0 59398 900.00000 0 7455340.023 8623816.824 22841775.761 10 0 59398 1800.00000 0 5107663.192 10171693.801 22844271.063 10 0 59398 2700.00000 0 2895876.502 11865544.935 22403901.217 10 0 59398 3600.00000 0 869466.274 13658500.433 21528898.521 10 0 59398 4500.00000 0 -931477.351 15496248.193 20235931.361 10 0 59398 5400.00000 0 -2477709.172 17319184.067 18549806.758 10 0 59398 6300.00000 0 -3751819.517 19064808.309 16503013.572 10 0 59398 7200.00000 0 -4748724.336 20670269.254 14135113.078 10 0 59398 8100.00000 0 -5475633.313 22074948.267 11491986.807 10 0 59398 9000.00000 0 -5951496.325 23222977.171 8624954.720 10 0 59398 9900.00000 0 -6205950.797 24065581.201 5589780.005 10 0 59398 10800.00000 0 -6277814.100 24563147.139 2445579.599 10 0 59398 11700.00000 0 -6213185.011 24686927.290 -746337.905 10 0 59398 12600.00000 0 -6063235.544 24420305.090 -3923683.092 10 0 59398 13500.00000 0 -5881788.316 23759566.782 -7024420.029 10 0 59398 14400.00000 0 -5722784.318 22714144.800 -9987997.933 10 0 59398 15300.00000 0 -5637750.936 21306321.440 -12756553.851 10 0 59398 16200.00000 0 -5673380.183 19570404.835 -15276060.763 10 0 59398 17100.00000 0 -5869322.271 17551412.177 -17497396.832 10 0 59398 18000.00000 0 -6256290.046 15303316.472 -19377313.424 10 0 59398 18900.00000 0 -6854556.055 12886931.767 -20879282.150 10 0 59398 19800.00000 0 -7672906.731 10367527.003 -21974204.161 10 0 59398 20700.00000 0 -8708098.051 7812269.915 -22640968.144 10 0 59398 21600.00000 0 -9944835.333 5287608.950 -22866847.045 10 0 59398 22500.00000 0 -11356277.223 2856703.027 -22647727.081 10 0 59398 23400.00000 0 -12905041.557 577006.357 -21988166.149 10 0 59398 24300.00000 0 -14544669.663 -1501891.997 -20901282.234 10 0 59398 25200.00000 0 -16221486.531 -3340085.439 -19408475.695 10 0 59398 26100.00000 0 -17876777.935 -4908750.624 -17538992.456 10 0 59398 27000.00000 0 -19449192.755 -6191076.190 -15329337.991 10 0 59398 27900.00000 0 -20877269.787 -7182683.934 -12822554.560 10 0 59398 28800.00000 0 -22101983.546 -7891528.052 -10067376.609 10 0 59398 29700.00000 0 -23069203.271 -8337279.857 -7117281.192 10 0 59398 30600.00000 0 -23731963.321 -8550226.498 -4029451.906 10 0 59398 31500.00000 0 -24052451.236 -8569732.084 -863676.390 10 0 59398 32400.00000 0 -24003631.733 -8442327.407 2318801.811 10 0 59398 33300.00000 0 -23570440.010 -8219509.409 5456455.541 10 0 59398 34200.00000 0 -22750495.569 -7955343.108 8488648.729 10 0 59398 35100.00000 0 -21554307.449 -7703966.506 11356792.028 10 0 59398 36000.00000 0 -20004962.489 -7517102.650 14005458.444 10 0 59398 36900.00000 0 -18137309.297 -7441682.503 16383438.782 10 0 59398 37800.00000 0 -15996670.981 -7517677.585 18444718.007 10 0 59398 38700.00000 0 -13637138.699 -7776232.750 20149355.039 10 0 59398 39600.00000 0 -11119515.120 -8238177.195 21464250.029 10 0 59398 40500.00000 0 -8508990.977 -8912976.504 22363785.146 10 0 59398 41400.00000 0 -5872648.801 -9798170.678 22830326.842 10 0 59398 42300.00000 0 -3276895.256 -10879323.361 22854579.691 10 0 59398 43200.00000 0 -784926.603 -12130486.651 22435784.308 10 0 59398 44100.00000 0 1545669.044 -13515164.770 21581754.277 10 0 59398 45000.00000 0 3665073.947 -14987739.044 20308749.657 10 0 59398 45900.00000 0 5533077.965 -16495297.339 18641187.524 10 0 59398 46800.00000 0 7120514.015 -17979793.689 16611192.915 10 0 59398 47700.00000 0 8410231.144 -19380449.299 14257996.713 10 0 59398 48600.00000 0 9397563.591 -20636295.141 11627190.244 10 0 59398 49500.00000 0 10090275.133 -21688749.371 8769849.443 10 0 59398 50400.00000 0 10507980.089 -22484120.296 5741544.783 10 0 59398 51300.00000 0 10681064.878 -22975927.886 2601255.911 10 0 59398 52200.00000 0 10649155.605 -23126943.813 -589787.472 10 0 59398 53100.00000 0 10459197.054 -22910861.443 -3769314.662 10 0 59398 54000.00000 0 10163225.668 -22313522.796 -6875247.776 10 0 59398 54900.00000 0 9815932.732 -21333648.459 -9846934.218 10 0 59398 55800.00000 0 9472123.279 -19983037.895 -12626351.441 10 0 59398 56700.00000 0 9184180.961 -18286230.644 -15159258.348 10 0 59398 57600.00000 0 8999648.744 -16279642.280 -17396268.988 10 0 59398 58500.00000 0 8959030.103 -14010211.856 -19293826.014 10 0 59398 59400.00000 0 9093905.428 -11533618.500 -20815054.078 10 0 59398 60300.00000 0 9425444.396 -8912143.143 -21930476.200 10 0 59398 61200.00000 0 9963377.471 -6212266.285 -22618579.415 10 0 59398 62100.00000 0 10705469.681 -3502103.354 -22866219.551 10 0 59398 63000.00000 0 11637517.999 -848785.454 -22668858.532 10 0 59398 63900.00000 0 12733871.187 1684105.014 -22030631.137 10 0 59398 64800.00000 0 13958448.778 4038937.597 -20964241.648 10 0 59398 65700.00000 0 15266214.927 6166177.057 -19490694.111 10 0 59398 66600.00000 0 16605043.870 8026179.328 -17638863.074 10 0 59398 67500.00000 0 17917897.734 9590567.939 -15444914.563 10 0 59398 68400.00000 0 19145224.705 10843136.518 -12951589.657 10 0 59398 69300.00000 0 20227476.850 11780242.891 -10207365.435 10 0 59398 70200.00000 0 21107642.316 12410681.537 -7265510.084 10 0 59398 71100.00000 0 21733686.515 12755042.725 -4183050.622 10 0 59398 72000.00000 0 22060800.939 12844587.663 -1019673.166 10 0 59398 72900.00000 0 22053366.636 12719688.808 2163423.417 10 0 59398 73800.00000 0 21686551.243 12427902.080 5304699.093 10 0 59398 74700.00000 0 20947473.811 12021752.491 8343447.670 10 0 59398 75600.00000 0 19835889.381 11556326.185 11220953.814 10 0 59398 76500.00000 0 18364364.967 11086769.498 13881611.054 10 0 59398 77400.00000 0 16557939.303 10665799.143 16273980.581 10 0 59398 78300.00000 0 14453279.671 10341327.055 18351771.868 10 0 59398 79200.00000 0 12097369.386 10154298.571 20074727.545 10 0 59398 80100.00000 0 9545778.643 10136833.970 21409396.518 10 0 59398 81000.00000 0 6860588.165 10310751.048 22329781.227 10 0 59398 81900.00000 0 4108049.290 10686531.036 22817846.953 10 0 59398 82800.00000 0 1356075.081 11262772.197 22863883.129 10 0 59398 83700.00000 0 -1328335.809 12026155.659 22466709.067 10 0 59398 84600.00000 0 -3881637.645 12951927.082 21633718.881 10 0 59398 85500.00000 0 -6246134.376 14004876.486 20380763.080 10 0 59399 0.00000 0 -8372135.900 15140777.725 18731867.162 10 0 59399 900.00000 0 -10219784.084 16308229.781 16718790.134 10 0 59399 1800.00000 0 -11760472.395 17450824.221 14380430.082 10 0 59399 2700.00000 0 -12977797.864 18509549.294 11762085.369 10 0 59399 3600.00000 0 -13868005.914 19425329.833 8914584.986 10 0 59399 4500.00000 0 -14439907.029 20141595.470 5893303.665 10 0 59399 5400.00000 0 -14714268.555 20606767.641 2757080.706 10 0 59399 6300.00000 0 -14722706.691 20776558.393 -432936.101 10 0 59399 7200.00000 0 -14506125.634 20615981.444 -3614497.719 10 0 59399 8100.00000 0 -14112770.783 20100987.872 -6725487.147 10 0 59399 9000.00000 0 -13595979.861 19219654.786 -9705152.642 10 0 59399 9900.00000 0 -13011729.196 17972874.556 -12495314.503 10 0 59399 10800.00000 0 -12416081.441 16374513.937 -15041519.728 10 0 59399 11700.00000 0 -11862645.240 14451035.345 -17294120.092 10 0 59399 12600.00000 0 -11400156.576 12240596.073 -19209251.040 10 0 59399 13500.00000 0 -11070285.988 9791663.626 -20749691.415 10 0 59399 14400.00000 0 -10905765.510 7161206.115 -21885586.888 10 0 59399 15300.00000 0 -10928915.004 4412534.635 -22595023.265 10 0 59399 16200.00000 0 -11150629.829 1612888.954 -22864439.323 10 0 59399 17100.00000 0 -11569871.689 -1169131.846 -22688872.398 10 0 59399 18000.00000 0 -12173682.718 -3866186.138 -22072033.480 10 0 59399 18900.00000 0 -12937720.512 -6414745.058 -21026212.105 10 0 59399 19800.00000 0 -13827289.776 -8757480.886 -19572014.595 10 0 59399 20700.00000 0 -14798825.448 -10845390.445 -17737942.373 10 0 59399 21600.00000 0 -15801763.483 -12639567.386 -15559819.996 10 0 59399 22500.00000 0 -16780719.580 -14112552.150 -13080085.105 10 0 59399 23400.00000 0 -17677883.684 -15249206.265 -10346955.010 10 0 59399 24300.00000 0 -18435529.564 -16047077.646 -7413486.554 10 0 59399 25200.00000 0 -18998534.389 -16516244.620 -4336547.655 10 0 59399 26100.00000 0 -19316803.232 -16678647.889 -1175720.404 10 0 59399 27000.00000 0 -19347497.707 -16566940.614 2007843.506 10 0 59399 27900.00000 0 -19056976.289 -16222906.448 5152593.629 10 0 59399 28800.00000 0 -18422365.993 -15695512.756 8197756.097 10 0 59399 29700.00000 0 -17432700.313 -15038680.980 11084491.983 10 0 59399 30600.00000 0 -16089576.115 -14308867.367 13757017.662 10 0 59399 31500.00000 0 -14407301.914 -13562554.761 16163666.901 10 0 59399 32400.00000 0 -12412530.530 -12853759.566 18257875.679 10 0 59399 33300.00000 0 -10143390.020 -12231657.227 19999072.094 10 0 59399 34200.00000 0 -7648147.170 -11738424.707 21353455.250 10 0 59399 35100.00000 0 -4983456.649 -11407389.616 22294648.973 10 0 59399 36000.00000 0 -2212265.822 -11261563.272 22804218.123 10 0 59399 36900.00000 0 598540.569 -11312619.503 22872037.384 10 0 59399 37800.00000 0 3380660.834 -11560362.928 22496504.804 10 0 59399 38700.00000 0 6066959.701 -11992710.573 21684594.737 10 0 59399 39600.00000 0 8594009.087 -12586189.609 20451747.539 10 0 59399 40500.00000 0 10904481.943 -13306932.586 18821596.110 10 0 59399 41400.00000 0 12949300.084 -14112130.662 16825532.383 10 0 59399 42300.00000 0 14689446.202 -14951885.728 14502119.972 10 0 59399 43200.00000 0 16097363.718 -15771384.967 11896362.384 10 0 59399 44100.00000 0 17157884.775 -16513307.014 9058839.386 10 0 59399 45000.00000 0 17868646.145 -17120358.129 6044727.358 10 0 59399 45900.00000 0 18239974.450 -17537830.374 2912722.335 10 0 59399 46800.00000 0 18294244.741 -17716071.987 -276112.947 10 0 59399 47700.00000 0 18064739.183 -17612763.177 -3459554.385 10 0 59399 48600.00000 0 17594054.456 -17194898.444 -6575449.146 10 0 59399 49500.00000 0 16932126.278 -16440388.825 -9562949.545 10 0 59399 50400.00000 0 16133956.238 -15339213.826 -12363721.769 10 0 59399 51300.00000 0 15257139.264 -13894072.283 -14923103.715 10 0 59399 52200.00000 0 14359298.595 -12120503.189 -17191187.406 10 0 59399 53100.00000 0 13495539.030 -10046470.633 -19123803.268 10 0 59399 54000.00000 0 12716028.002 -7711430.173 -20683386.125 10 0 59399 54900.00000 0 12063808.046 -5164916.241 -21839705.678 10 0 59399 55800.00000 0 11572933.704 -2464710.664 -22570447.427 10 0 59399 56700.00000 0 11267011.332 325330.098 -22861633.545 10 0 59399 57600.00000 0 11158202.584 3137697.370 -22707876.751 10 0 59399 58500.00000 0 11246732.082 5903800.568 -22112463.770 10 0 59399 59400.00000 0 11520918.112 8556578.143 -21087268.491 10 0 59399 60300.00000 0 11957722.899 11033040.924 -19652498.220 10 0 59399 61200.00000 0 12523797.145 13276642.931 -17836279.611 10 0 59399 62100.00000 0 13176972.891 15239382.722 -15674093.771 10 0 59399 63000.00000 0 13868140.262 16883550.016 -13208072.625 10 0 59399 63900.00000 0 14543427.975 18183047.376 -10486171.149 10 0 59399 64800.00000 0 15146595.243 19124234.735 -7561232.024 10 0 59399 65700.00000 0 15621534.365 19706264.443 -4489961.059 10 0 59399 66600.00000 0 15914779.105 19940895.457 -1331833.170 10 0 59399 67500.00000 0 15977914.118 19851796.877 1852050.324 10 0 59399 68400.00000 0 15769785.105 19473371.771 5000131.711 10 0 59399 69300.00000 0 15258417.834 18849151.739 8051572.462 10 0 59399 70200.00000 0 14422566.335 18029830.043 10947412.864 10 0 59399 71100.00000 0 13252825.817 17071015.606 13631694.671 10 0 59399 72000.00000 0 11752263.757 16030801.324 16052526.475 10 0 59399 72900.00000 0 9936542.169 14967247.509 18163072.701 10 0 59399 73800.00000 0 7833524.703 13935884.510 19922448.534 10 0 59399 74700.00000 0 5482383.145 12987337.796 21296504.580 10 0 59399 75600.00000 0 2932238.092 12165173.700 22258487.014 10 0 59399 76500.00000 0 240387.532 11504055.196 22789560.879 10 0 59399 77400.00000 0 -2529806.043 11028284.640 22879186.321 10 0 59399 78300.00000 0 -5311285.219 10750794.738 22525339.895 10 0 59399 79200.00000 0 -8035828.315 10672630.932 21734575.511 10 0 59399 80100.00000 0 -10636638.198 10782948.338 20521922.181 10 0 59399 81000.00000 0 -13050883.267 11059525.165 18910618.586 10 0 59399 81900.00000 0 -15222085.833 11469773.033 16931687.359 10 0 59399 82800.00000 0 -17102258.373 11972203.613 14623355.159 10 0 59399 83700.00000 0 -18653697.980 12518291.381 12030327.786 10 0 59399 84600.00000 0 -19850362.902 13054654.934 9202932.723 10 0 59399 85500.00000 0 -20678771.990 13525465.028 6196144.829 10 0 59400 0.00000 0 -21138387.984 13874977.035 3068513.767 10 0 59400 900.00000 0 -21241467.056 14050078.993 -118986.034 10 0 59400 1800.00000 0 -21012380.738 14002746.300 -3304158.366 10 0 59400 2700.00000 0 -20486437.774 13692294.872 -6424817.442 10 0 59400 3600.00000 0 -19708257.220 13087336.434 -9420022.344 10 0 59400 4500.00000 0 -18729762.033 12167349.173 -12231287.640 10 0 59400 5400.00000 0 -17607880.071 10923795.521 -14803744.358 10 0 59400 6300.00000 0 -16402051.664 9360737.703 -17087226.687 10 0 59400 7200.00000 0 -15171651.273 7494923.941 -19037261.585 10 0 59400 8100.00000 0 -13973434.116 5355341.010 -20615941.015 10 0 59400 9000.00000 0 -12859117.001 2982251.971 -21792659.451 10 0 59400 9900.00000 0 -11873196.321 425759.998 -22544702.400 10 0 59400 10800.00000 0 -11051095.235 -2256040.764 -22857675.334 10 0 59400 11700.00000 0 -10417717.396 -4999249.154 -22725765.857 10 0 59400 12600.00000 0 -9986466.719 -7736583.742 -22151835.548 10 0 59400 13500.00000 0 -9758772.415 -10399950.796 -21147341.409 10 0 59400 14400.00000 0 -9724136.900 -12923046.519 -19732090.167 10 0 59400 15300.00000 0 -9860702.039 -15243885.769 -17933831.864 10 0 59400 16200.00000 0 -10136307.415 -17307153.175 -15787702.089 10 0 59400 17100.00000 0 -10509993.913 -19066280.554 -13335524.823 10 0 59400 18000.00000 0 -10933887.575 -20485166.198 -10624990.392 10 0 59400 18900.00000 0 -11355383.218 -21539466.938 -7708724.977 10 0 59400 19800.00000 0 -11719535.240 -22217411.724 -4643269.948 10 0 59400 20700.00000 0 -11971554.890 -22520105.318 -1487990.769 10 0 59400 21600.00000 0 -12059309.257 -22461311.774 1696063.835 10 0 59400 22500.00000 0 -11935717.551 -22066728.680 4847331.076 10 0 59400 23400.00000 0 -11560944.773 -21372783.885 7904909.918 10 0 59400 24300.00000 0 -10904301.472 -20425005.853 10809721.993 10 0 59400 25200.00000 0 -9945770.425 -19276035.899 13505636.537 10 0 59400 26100.00000 0 -8677096.493 -17983365.037 15940538.988 10 0 59400 27000.00000 0 -7102393.704 -16606889.104 18067324.125 10 0 59400 27900.00000 0 -5238243.166 -15206383.047 19844795.963 10 0 59400 28800.00000 0 -3113276.181 -13838998.479 21238458.136 10 0 59400 29700.00000 0 -767257.680 -12556887.620 22221180.430 10 0 59400 30600.00000 0 1750294.658 -11405051.641 22773729.052 10 0 59400 31500.00000 0 4381901.087 -10419502.568 22885150.276 10 0 59400 32400.00000 0 7064249.087 -9625815.237 22552999.536 10 0 59400 33300.00000 0 9730575.779 -9038130.145 21783410.347 10 0 59400 34200.00000 0 12313206.987 -8658649.820 20591000.135 10 0 59400 35100.00000 0 14746149.418 -8477651.088 18998612.800 10 0 59400 36000.00000 0 16967629.359 -8474014.336 17036900.786 10 0 59400 36900.00000 0 18922472.464 -8616249.185 14743752.568 10 0 59400 37800.00000 0 20564225.012 -8863974.919 12163574.627 10 0 59400 38700.00000 0 21856926.975 -9169794.313 9346440.164 10 0 59400 39600.00000 0 22776461.076 -9481482.223 6347120.118 10 0 59400 40500.00000 0 23311419.636 -9744396.149 3224014.869 10 0 59400 41400.00000 0 23463451.163 -9904005.661 38007.713 10 0 59400 42300.00000 0 23247070.808 -9908431.812 -3148736.450 10 0 59400 43200.00000 0 22688942.035 -9710886.544 -6274002.284 10 0 59400 44100.00000 0 21826659.744 -9271906.039 -9276758.995 10 0 59400 45000.00000 0 20707086.938 -8561280.571 -12098372.759 10 0 59400 45900.00000 0 19384316.502 -7559596.570 -14683770.732 10 0 59400 46800.00000 0 17917345.909 -6259323.421 -16982531.977 10 0 59400 47700.00000 0 16367565.060 -4665397.438 -18949882.354 10 0 59400 48600.00000 0 14796165.172 -2795277.407 -20547572.990 10 0 59400 49500.00000 0 13261579.580 -678468.906 -21744624.757 10 0 59400 50400.00000 0 11817065.357 1644462.332 -22517924.406 10 0 59400 51300.00000 0 10508527.904 4123346.084 -22852661.519 10 0 59400 52200.00000 0 9372679.521 6700270.610 -22742598.958 10 0 59400 53100.00000 0 8435608.190 9311774.137 -22190173.092 10 0 59400 54000.00000 0 7711814.732 11891272.791 -21206423.530 10 0 59400 54900.00000 0 7203756.331 14371623.461 -19810755.489 10 0 59400 55800.00000 0 6901912.831 16687714.877 -18030541.055 10 0 59400 56700.00000 0 6785370.176 18778979.742 -15900568.560 10 0 59400 57600.00000 0 6822893.720 20591724.508 -13462351.934 10 0 59400 58500.00000 0 6974443.966 22081181.409 -10763314.387 10 0 59400 59400.00000 0 7193069.101 23213199.315 -7855862.832 10 0 59400 60300.00000 0 7427093.381 23965505.246 -4796371.167 10 0 59400 61200.00000 0 7622508.664 24328486.181 -1644092.175 10 0 59400 62100.00000 0 7725468.274 24305460.798 1539981.346 10 0 59400 63000.00000 0 7684778.614 23912431.706 4694284.883 10 0 59400 63900.00000 0 7454284.403 23177329.951 7757858.153 10 0 59400 64800.00000 0 6995048.005 22138784.305 10671507.222 10 0 59400 65700.00000 0 6277232.033 20844467.026 13378931.655 10 0 59400 66600.00000 0 5281606.642 19349084.869 15827796.310 10 0 59400 67500.00000 0 4000618.320 17712098.401 17970728.587 10 0 59400 68400.00000 0 2438974.777 15995263.477 19766223.267 10 0 59400 69300.00000 0 613720.258 14260095.924 21179438.613 10 0 59400 70200.00000 0 -1446203.815 12565363.534 22182869.267 10 0 59400 71100.00000 0 -3700897.133 10964708.376 22756883.454 10 0 59400 72000.00000 0 -6100901.524 9504497.415 22890114.019 10 0 59400 72900.00000 0 -8589009.600 8221990.263 22579695.249 10 0 59400 73800.00000 0 -11102409.019 7143900.280 21831339.748 10 0 59400 74700.00000 0 -13575075.917 6285409.497 20659252.301 10 0 59400 75600.00000 0 -15940320.348 5649679.318 19085880.439 10 0 59400 76500.00000 0 -18133379.372 5227878.724 17141504.318 10 0 59400 77400.00000 0 -20093950.414 4999730.178 14863671.655 10 0 59400 78300.00000 0 -21768559.169 4934551.639 12296486.644 10 0 59400 79200.00000 0 -23112662.186 4992751.879 9489764.962 10 0 59400 80100.00000 0 -24092394.602 5127716.651 6498070.206 10 0 59400 81000.00000 0 -24685887.922 5288005.949 3379650.059 10 0 59400 81900.00000 0 -24884100.554 5419768.612 195293.117 10 0 59400 82800.00000 0 -24691124.422 5469270.537 -2992870.312 10 0 59400 83700.00000 0 -24123953.488 5385427.188 -6122598.506 10 0 59400 84600.00000 0 -23211723.311 5122230.465 -9132773.780 10 0 59400 85500.00000 0 -21994453.811 4640964.301 -11964616.652 10 0 59401 0.00000 0 -20521349.104 3912112.433 -14562852.809 10 0 59401 900.00000 0 -18848727.415 2916874.656 -16876808.383 10 0 59401 1800.00000 0 -17037670.251 1648226.915 -18861409.806 10 0 59401 2700.00000 0 -15151491.770 111476.824 -20478068.583 10 0 59401 3600.00000 0 -13253136.325 -1675707.185 -21695432.721 10 0 59401 4500.00000 0 -11402615.285 -3683795.888 -22489990.415 10 0 59401 5400.00000 0 -9654591.265 -5872406.441 -22846515.039 10 0 59401 6300.00000 0 -8056211.135 -8191773.943 -22758343.923 10 0 59401 7200.00000 0 -6645277.805 -10584624.829 -22227486.984 10 0 59401 8100.00000 0 -5448835.740 -12988372.993 -21264564.831 10 0 59401 9000.00000 0 -4482227.123 -15337546.375 -19888579.245 10 0 59401 9900.00000 0 -3748655.466 -17566342.500 -18126522.186 10 0 59401 10800.00000 0 -3239271.853 -19611206.691 -16012832.391 10 0 59401 11700.00000 0 -2933777.136 -21413326.222 -13588711.298 10 0 59401 12600.00000 0 -2801511.951 -22920937.614 -10901312.542 10 0 59401 13500.00000 0 -2802986.343 -24091352.506 -8002821.322 10 0 59401 14400.00000 0 -2891782.755 -24892619.532 -4949441.713 10 0 59401 15300.00000 0 -3016751.173 -25304754.853 -1800311.564 10 0 59401 16200.00000 0 -3124403.363 -25320492.019 1383634.401 10 0 59401 17100.00000 0 -3161405.454 -24945521.656 4540831.974 10 0 59401 18000.00000 0 -3077064.357 -24198212.386 7610263.589 10 0 59401 18900.00000 0 -2825704.129 -23108825.638 10532621.631 10 0 59401 19800.00000 0 -2368833.128 -21718257.449 13251437.818 10 0 59401 20700.00000 0 -1677011.574 -20076359.616 15714158.170 10 0 59401 21600.00000 0 -731341.455 -18239909.400 17873144.331 10 0 59401 22500.00000 0 475483.933 -16270311.145 19686583.332 10 0 59401 23400.00000 0 1938615.504 -14231123.956 21119289.355 10 0 59401 24300.00000 0 3640994.153 -12185516.592 22143382.975 10 0 59401 25200.00000 0 5553811.173 -10193753.696 22738835.262 10 0 59401 26100.00000 0 7637466.838 -8310816.440 22893866.208 10 0 59401 27000.00000 0 9842990.238 -6584255.432 22605189.260 10 0 59401 27900.00000 0 12113864.472 -5052364.548 21878096.158 10 0 59401 28800.00000 0 14388184.148 -3742751.702 20726378.841 10 0 59401 29700.00000 0 16601057.961 -2671366.557 19172088.007 10 0 59401 30600.00000 0 18687158.243 -1842026.624 17245130.785 10 0 59401 31500.00000 0 20583312.179 -1246462.743 14982713.104 10 0 59401 32400.00000 0 22231026.844 -864883.211 12428635.538 10 0 59401 33300.00000 0 23578841.801 -667033.917 9632454.552 10 0 59401 34200.00000 0 24584409.387 -613710.536 6648524.364 10 0 59401 35100.00000 0 25216213.532 -658659.104 3534937.581 10 0 59401 36000.00000 0 25454852.792 -750784.127 352385.389 10 0 59401 36900.00000 0 25293831.481 -836569.534 -2837039.432 10 0 59401 37800.00000 0 24739823.844 -862608.045 -5971071.865 10 0 59401 38700.00000 0 23812398.877 -778129.301 -8988510.453 10 0 59401 39600.00000 0 22543216.867 -537416.938 -11830433.104 10 0 59401 40500.00000 0 20974731.728 -102009.344 -14441367.011 10 0 59401 41400.00000 0 19158454.665 557411.665 -16770387.845 10 0 59401 42300.00000 0 17152853.747 1459526.337 -18772125.064 10 0 59401 43200.00000 0 15020979.420 2611341.417 -20407652.694 10 0 59401 44100.00000 0 12827917.469 4007658.216 -21645247.690 10 0 59401 45000.00000 0 10638177.898 5631066.995 -22461001.231 10 0 59401 45900.00000 0 8513130.135 7452467.710 -22839271.703 10 0 59401 46800.00000 0 6508592.312 9432094.570 -22772971.773 10 0 59401 47700.00000 0 4672675.077 11521000.512 -22263685.403 10 0 59401 48600.00000 0 3043968.776 13662938.476 -21321614.279 10 0 59401 49500.00000 0 1650147.754 15796559.959 -19965356.385 10 0 59401 50400.00000 0 507047.558 17857838.365 -18221522.749 10 0 59401 51300.00000 0 -381749.511 19782615.805 -16124201.255 10 0 59401 52200.00000 0 -1024806.350 21509167.314 -13714279.146 10 0 59401 53100.00000 0 -1442208.224 22980676.167 -11038638.371 10 0 59401 54000.00000 0 -1664454.169 24147518.178 -8149239.933 10 0 59401 54900.00000 0 -1730911.607 24969261.120 -5102115.269 10 0 59401 55800.00000 0 -1687900.863 25416297.468 -1956284.225 10 0 59401 56700.00000 0 -1586491.307 25471044.061 1227379.798 10 0 59401 57600.00000 0 -1480102.303 25128660.214 4387316.251 10 0 59401 58500.00000 0 -1422009.817 24397255.654 7462453.631 10 0 59401 59400.00000 0 -1462863.072 23297580.557 10393373.922 10 0 59401 60300.00000 0 -1648314.956 21862211.029 13123444.122 10 0 59401 61200.00000 0 -2016864.981 20134263.869 15599894.334 10 0 59401 62100.00000 0 -2598004.756 18165693.447 17774823.133 10 0 59401 63000.00000 0 -3410743.648 16015240.333 19606112.213 10 0 59401 63900.00000 0 -4462576.679 13746115.439 21058233.775 10 0 59401 64800.00000 0 -5748938.921 11423514.000 22102936.090 10 0 59401 65700.00000 0 -7253170.875 9112060.724 22719794.463 10 0 59401 66600.00000 0 -8946998.566 6873290.447 22896616.984 10 0 59401 67500.00000 0 -10791511.079 4763267.360 22629696.740 10 0 59401 68400.00000 0 -12738597.880 2830440.646 21923904.557 10 0 59401 69300.00000 0 -14732788.915 1113825.200 20792618.905 10 0 59401 70200.00000 0 -16713423.621 -358416.856 19257492.438 10 0 59401 71100.00000 0 -18617060.568 -1569934.248 17348057.455 10 0 59401 72000.00000 0 -20380028.594 -2516643.222 15101175.752 10 0 59401 72900.00000 0 -21941013.457 -3206662.701 12560341.444 10 0 59401 73800.00000 0 -23243571.469 -3659729.576 9774848.551 10 0 59401 74700.00000 0 -24238463.609 -3906117.878 6798838.408 10 0 59401 75600.00000 0 -24885710.367 -3985107.042 3690244.862 10 0 59401 76500.00000 0 -25156278.727 -3943064.170 509657.962 10 0 59401 77400.00000 0 -25033327.923 -3831222.267 -2680870.737 10 0 59401 78300.00000 0 -24512959.272 -3703250.128 -5819056.511 10 0 59401 79200.00000 0 -23604436.693 -3612718.987 -8843617.544 10 0 59401 80100.00000 0 -22329867.440 -3610575.840 -11695492.317 10 0 59401 81000.00000 0 -20723356.062 -3742733.264 -14319012.376 10 0 59401 81900.00000 0 -18829667.489 -4047880.488 -16663005.562 10 0 59401 82800.00000 0 -16702456.485 -4555610.657 -18681806.434 10 0 59401 83700.00000 0 -14402139.245 -5284945.321 -20336153.109 10 0 59401 84600.00000 0 -11993498.075 -6243319.639 -21593952.520 10 0 59401 85500.00000 0 -9543121.143 -7426071.596 -22430899.219 99